Location: West Cummington
(42.4920°N, 72.9680°W)
Time: 16:16:16
(UTC-05:00)

Daily predictions for brighter satellites

Satellite Brightness Start Highest point End
(mag) Time Altitude Azimuth Time Altitude Azimuth Time Altitude Azimuth
IDEFIX/ARIANE 42P 3.7 16:49:27 10° S 16:54:32 51° W 16:59:37 10° NNW
CORIOLIS 4.5 16:50:09 10° SE 16:55:17 45° ENE 17:00:27 10° N
IRAS Rocket 4.2 16:50:01 10° SSE 16:55:34 82° ENE 17:01:07 10° NNW
USA 234 4.2 16:50:43 10° ENE 16:56:23 31° SE 17:02:00 10° S
Cosmos 2208 Rocket 4.1 16:54:03 10° NNW 16:59:17 84° WSW 17:04:33 10° SSE
Cosmos 1484 Rocket 2.9 16:56:26 10° SSE 17:00:09 50° ENE 17:03:57 10° N
Cosmos 841 Rocket 4.3 16:56:17 10° N 17:00:51 29° ENE 17:05:23 10° ESE
Cosmos 1862 3.7 16:58:40 10° NNW 17:02:41 69° W 17:06:41 10° S
Cosmos 972 Rocket 3.9 16:57:56 10° N 17:02:49 58° ENE 17:07:39 10° SSE
Meteor 1-28 Rocket 3.8 17:00:32 10° NNE 17:03:57 34° E 17:07:21 10° SSE
Cosmos 2233 Rocket 4.3 16:58:34 10° SSE 17:04:27 44° E 17:10:18 10° NNE
BREEZE-M DEB (TANK) 3.4 17:05:24 10° NW 17:06:56 18° NNE 17:08:33 11° ENE
AQUARIUS 4.2 17:03:24 10° SSE 17:07:50 62° ENE 17:12:17 10° N
Cosmos 1606 4.4 17:05:45 10° ESE 17:07:51 15° E 17:09:58 10° NE
Cosmos 1908 Rocket 4.3 17:08:24 10° NNE 17:12:14 30° ENE 17:16:03 10° SE
CZ-4C R/B 4.1 17:07:24 10° NNW 17:12:18 20° NNE 17:17:03 12° ENE
Cosmos 2242 Rocket 3.6 17:09:18 10° S 17:13:52 84° E 17:18:25 10° N
Landsat 4 4.4 17:10:40 10° NNE 17:14:08 34° E 17:17:37 10° SSE
Cosmos 1782 4.2 17:12:15 10° SE 17:15:03 18° E 17:17:52 10° NE
Cosmos 1733 Rocket 3.0 17:11:15 10° N 17:15:42 79° E 17:20:08 10° S
SPOT 3 Rocket 4.4 17:11:32 10° ESE 17:15:55 28° ENE 17:20:19 10° N
Cosmos 2082 Rocket 3.3 17:13:57 10° N 17:18:30 24° NE 17:23:01 10° ESE
Lacrosse 5 3.4 17:14:44 10° W 17:19:01 27° NNW 17:23:19 10° NNE
Sich 1 Rocket 4.3 17:15:29 10° NNE 17:19:24 30° ENE 17:23:19 10° SE
USA 161 4.2 17:21:27 10° WNW 17:21:41 10° WNW 17:21:55 10° W
CSL-04 Rocket 3.9 17:18:16 10° S 17:23:32 73° WSW 17:28:53 10° NNW
Cosmos 1862 Rocket 3.5 17:21:29 10° S 17:25:54 85° E 17:30:22 10° N
Cosmos 1816 Rocket 4.5 17:25:05 10° N 17:31:15 88° W 17:37:24 10° S
GENESIS II 4.1 17:29:46 10° NNW 17:33:43 85° ENE 17:37:37 10° SE
Cosmos 1340 4.0 17:32:07 10° SSW 17:35:41 42° WNW 17:39:19 10° N
METEOR-M 4.1 17:33:15 10° SSE 17:38:29 61° ENE 17:43:45 10° N
CENTAUR R/B 3.1 17:33:57 10° SW 17:39:57 58° NW 17:46:50 10° NNE
Cosmos 1437 3.8 17:41:33 10° SSW 17:44:37 46° WNW 17:47:43 10° N
Cosmos 304 Rocket 3.7 17:40:08 10° NNW 17:44:58 85° ENE 17:49:46 10° SSE
Meteor 1-14 Rocket 4.2 17:42:02 10° N 17:47:45 88° E 17:53:20 10° S
Okean 1-7 3.5 17:45:12 10° SSE 17:49:15 38° E 17:52:08 17° NNE
MONITOR-E 4.2 17:46:28 10° SSE 17:49:27 53° ENE 17:52:26 10° N
ERS-2 2.0 17:46:18 10° SSE 17:49:59 81° ENE 17:53:41 10° NNW
IRS-1A Rocket 4.5 17:44:26 10° SSE 17:50:16 79° WSW 17:56:02 10° NNW
ERBS 2.6 17:47:08 10° NW 17:50:31 66° SW 17:53:40 11° SE
CZ-2C R/B 3.9 17:46:33 10° N 17:51:00 72° WNW 17:55:30 10° SSW
Cosmos 1844 Rocket 4.0 17:46:48 10° SW 17:52:02 38° WNW 17:57:17 10° N
COSMOS 2455 3.2 17:49:47 10° SW 17:55:44 64° WNW 18:01:45 10° NNE
Cosmos 1782 Rocket 3.6 17:52:20 10° N 17:56:36 51° E 18:00:50 10° SSE
COSMO-SKYMED 1 2.4 17:56:16 10° NNE 18:00:38 79° ESE 18:04:57 10° S
YAOGAN 1 3.1 17:58:29 10° S 18:02:46 62° W 18:07:04 10° NNW
Cosmos 2034 Rocket 4.4 17:57:11 10° SSE 18:03:04 41° E 18:08:57 10° NNE
BREEZE-M R/B 2.4 18:02:56 10° WNW 18:05:45 86° NNE 18:07:11 37° ESE
CZ-4 R/B 3.0 18:03:20 10° SSW 18:06:53 34° W 18:10:26 10° NNW
Meteor 1-11 Rocket 4.2 18:01:57 10° N 18:07:22 37° ENE 18:10:14 23° ESE
Cosmos 44 4.0 18:03:58 10° NNW 18:08:00 32° NE 18:08:00 32° NE
Cosmos 1763 Rocket 4.2 18:04:06 10° NNW 18:09:13 56° WSW 18:14:13 10° S
Cosmos 2221 Rocket 3.5 18:06:36 10° S 18:10:56 61° E 18:13:08 28° NNE
Centaur D AC-28 4.5 18:08:13 10° SW 18:13:05 31° SSE 18:21:44 18° ESE
FENGYUN 3A 3.5 18:08:14 10° SSE 18:13:38 75° ENE 18:19:03 10° N
Cosmos 2297 3.8 18:11:04 10° S 18:16:37 56° ESE 18:18:48 35° NE
ALOS 2.1 18:12:34 10° SSE 18:17:14 85° ENE 18:21:56 10° NNW
Cosmos 1833 Rocket 2.6 18:13:41 10° NNW 18:19:18 66° ENE 18:23:09 21° SE
Cosmos 2278 Rocket 2.8 18:18:10 10° SW 18:23:43 56° WNW 18:28:39 13° NNE
SL-27 R/B 2.8 18:20:29 10° NNW 18:23:47 60° WSW 18:25:00 34° S
Cosmos 1503 Rocket 3.9 18:19:25 10° SSW 18:24:42 74° ESE 18:26:49 37° NNE
Cosmos 1703 Rocket 4.1 18:20:46 10° SSW 18:25:10 58° W 18:29:36 10° N
Cosmos 1633 3.4 18:27:26 10° NNW 18:31:00 50° W 18:34:33 10° S
Cosmos 1464 Rocket 3.9 18:26:26 10° S 18:32:34 88° W 18:38:45 10° N
Okean 2 Rocket 3.0 18:28:08 10° N 18:32:41 83° E 18:37:12 10° S
Meteor 2-20 4.3 18:28:23 10° N 18:34:28 68° E 18:40:29 10° SSE
Cosmos 836 Rocket 4.5 18:34:01 10° NNW 18:39:17 82° WSW 18:43:38 15° SSE
USA 234 3.3 18:36:48 36° NE 18:39:44 77° NW 18:46:16 10° WSW
Cosmos 540 Rocket 3.5 18:36:30 10° NNW 18:41:42 75° WSW 18:46:03 14° S
Cosmos 1606 4.2 18:39:47 10° SW 18:43:16 35° WNW 18:45:11 21° NNW
Meteor 2-6 Rocket 4.5 18:45:00 10° SSW 18:50:22 64° WNW 18:55:29 12° N
CZ-4C R/B 2.9 18:55:13 10° NNW 19:02:16 61° NE 19:02:17 61° NE
Cosmos 2082 Rocket 2.7 18:57:24 10° NNW 19:02:59 57° WSW 19:05:55 27° S
Lacrosse 5 4.0 19:00:32 10° NW 19:03:04 15° N 19:03:04 15° N
FengYun 1-2 T 4.4 19:03:37 27° S 19:06:40 69° WSW 19:12:14 10° NNW
Meteor 1-27 Rocket 4.1 19:08:25 10° SSW 19:14:16 66° WNW 19:15:39 50° NNW
